Location: Unspecified
(0.0000°N, 0.0000°E)
Time: 02:34:02
(UTC+00:00)

ISS - Pass Details

Date: 13 September 2018
Orbit: 408 x 411 km, 51.6° (Epoch: 23 March)

Event Time Altitude Azimuth Distance (km) Brightness Sun altitude
Rises 08:35:08 0° 311° (NW) 2,321 -0.3 39.7°
Reaches altitude 10° 08:37:19 10° 302° (WNW) 1,466 -1.3 40.2°
Maximum altitude 08:40:21 35° 235° (SW) 688 -2.7 41.0°
Drops below altitude 10° 08:43:25 10° 167° (SSE) 1,480 -0.8 41.7°
Sets 08:45:38 0° 157° (SSE) 2,347 0.2 42.3°
